Location: Tel Aviv
(32.0670°N, 34.7670°E)
Time: 04:38:15
(UTC+03:00)

Vanguard 2 - Pass Details

Date: 29 January 2022
Orbit: 552 x 2935 km, 32.9° (Epoch: 25 May)

Event Time Altitude Azimuth Distance (km) Brightness Sun altitude
Rises 18:04:00 0° 238° (WSW) 3,223 12.3 -11.4°
Reaches altitude 10° 18:06:02 10° 234° (SW) 2,481 11.3 -11.8°
Maximum altitude 18:11:51 61° 155° (SSE) 1,307 8.6 -13.0°
Enters shadow 18:19:02 18° 81° (E) 3,216 10.0 -14.5°
Drops below altitude 10° 18:21:36 10° 79° (ENE) 4,074 - -15.0°
Sets 18:25:53 0° 76° (ENE) 5,470 - -15.9°
